Regional Weather Roundup
Issued by NWS

Home | Current Version | Previous Version | Graphics & Text | Print | Product List | Glossary On
Versions: 1 2 3 4 5 6 7 8 9 10 11 12 13 14 15 16 17 18 19 20 21 22 23 24 25 26 27 28 29 30 31 32 33 34 35 36 37 38 39 40 41 42 43 44 45 46 47 48 49 50
000
ASUS43 KTOP 020908
RWRKS

WEATHER ROUNDUP FOR KANSAS
NATIONAL WEATHER SERVICE GOODLAND KS
400 AM CDT THU APR 02 2015

NOTE:  "FAIR" INDICATES FEW OR NO CLOUDS BELOW 12,000 FEET WITH NO
SIGNIFICANT WEATHER AND/OR OBSTRUCTIONS TO VISIBILITY.

KSZ001>006-013>018-027>032-041>047-021000-
NORTHWEST KANSAS

CITY           SKY/WX    TMP DP  RH WIND       PRES   REMARKS
GOODLAND       PTCLDY    43  39  86 N9        29.88R
HAYS           PTCLDY    54  34  47 NE16      29.81R
HILL CITY      CLEAR     53  29  39 NE13      29.82R
RUSSELL        PTCLDY    54  42  64 N16       29.77R
$$

KSZ061>065-074>080-084>089-021000-
SOUTHWEST KANSAS

CITY           SKY/WX    TMP DP  RH WIND       PRES   REMARKS
DODGE CITY     CLEAR     53  36  52 NE20      29.76R
ELKHART          N/A     50  35  56 NW8         N/A
GARDEN CITY    CLEAR     51  36  56 NE21      29.79R
GREAT BEND     CLEAR     55  43  62 NE21G28   29.76R
LIBERAL        CLEAR     55  36  47 NE17      29.80R
PRATT          CLEAR     55  43  62 NE25G33   29.74R
$$

KSZ066>073-081>083-090>101-021000-
SOUTHEAST KANSAS

CITY           SKY/WX    TMP DP  RH WIND       PRES   REMARKS
CHANUTE        MOCLDY    67  62  84 S21       29.62F
COFFEYVILLE    CLOUDY    68  62  81 S20G26    29.66F
HUTCHINSON     MOCLDY    58  51  78 N21G26    29.70F
MEDICINE LODGE   N/A     60  49  66 N20G30    29.67R
NEWTON         CLOUDY    57  50  77 N16       29.72R THUNDER
PARSONS        MOCLDY    68  63  84 S21G30    29.65F
WICHITA INTL   MOCLDY    69  59  70 SW12      29.66R
WICHITA JABRA  CLOUDY    70  59  68 SW21G29   29.67R
WICHITA MCCONL MOCLDY    69  61  74 S16       29.66R
WINFIELD       MOCLDY    65  61  87 S10       29.65R
$$

KSZ007>012-019>026-033>040-048>060-102>105-021000-
NORTHEAST KANSAS

CITY           SKY/WX    TMP DP  RH WIND       PRES   REMARKS
CONCORDIA      MOCLDY    54  49  83 NE13      29.77R
EMPORIA        MOCLDY    66  59  78 CALM      29.62S
LAWRENCE       LGT RAIN  61  54  77 N20       29.67R
MANHATTAN      LGT RAIN  57  55  93 N20G25    29.73R
MARYSVILLE     CLOUDY    54  52  94 NE9       29.73R
OLATHE IND     CLOUDY    67  61  81 NW13      29.68R
OLATHE EXE     CLOUDY    66  61  84 NW10      29.67R
SALINA         CLOUDY    58  52  80 NE18G31   29.74F
TOPEKA BILLARD CLOUDY    59  54  83 N17G28    29.70R THUNDER
TOPEKA FORBES  CLOUDY    62  52  69 N20G31    29.66R THUNDER
$$


USA.gov is the U.S. government's official web portal to all federal, state and local government web resources and services.